GFSSGP_prec_cthk_273.txt.gz
RH
65 67 67 68 67 68 71 73 72 70 68 66 68 75 68 69 63 63 61 62 56 52 50 49 51 49 49 46 45 44 43 43 46 46 48 55 58 59 59 57 57 62 55 51 57 59 59 58 58
65 63 63 66 66 65 71 74 73 76 66 68 70 75 77 73 70 66 61 57 52 49 48 48 48 47 46 43 45 45 43 38 39 43 46 53 56 57 56 50 54 59 55 50 52 57 61 58 58
62 61 56 58 63 66 68 69 72 71 66 60 64 68 69 70 73 66 60 55 50 47 47 44 44 43 42 43 44 46 45 39 37 40 51 59 64 57 53 50 53 53 49 48 54 54 58 60 60
63 60 58 56 59 66 75 70 73 64 67 59 53 55 62 64 66 62 58 53 49 46 46 43 43 42 43 43 45 45 43 39 40 40 44 48 55 60 49 44 44 48 46 49 50 52 53 56 60
57 58 56 57 54 61 74 69 67 64 62 59 55 55 57 63 63 58 57 54 48 47 47 46 45 45 47 47 49 48 43 41 40 45 48 48 44 43 41 40 42 43 43 43 46 50 52 53 56
60 58 60 68 54 54 61 62 68 62 60 60 53 50 57 61 58 58 55 52 48 47 49 48 49 51 50 51 54 57 58 57 56 54 51 49 48 46 46 44 42 41 44 43 45 47 49 52 55
53 57 62 71 64 50 55 61 63 59 58 53 50 51 55 58 60 58 55 49 50 48 49 50 51 57 52 54 57 58 60 61 59 60 61 58 58 57 55 50 50 48 48 47 46 47 51 51 54
56 56 58 57 60 53 56 65 70 60 58 50 50 51 53 54 57 58 56 51 48 48 50 51 53 55 55 55 57 59 60 60 58 61 66 63 62 65 62 60 61 58 56 53 50 52 52 55 56
57 58 62 57 59 54 47 58 64 60 53 55 53 46 47 51 52 55 54 51 46 47 49 51 54 55 57 56 57 58 59 61 59 61 63 65 67 67 71 67 69 67 63 62 62 60 59 64 67
55 57 60 58 58 55 46 49 60 59 52 53 55 47 44 49 51 50 48 48 46 47 48 50 53 56 56 56 57 58 60 58 60 62 65 69 72 78 80 77 77 76 72 68 65 71 70 73 75
58 56 58 58 57 55 44 47 60 54 60 45 48 46 46 47 49 47 44 46 48 52 52 52 53 55 57 56 56 57 59 60 61 62 67 70 82 82 77 83 85 83 84 78 76 69 68 75 78
56 55 55 55 55 49 46 49 50 53 69 43 46 42 46 44 44 44 45 48 56 59 55 52 54 57 59 61 62 70 68 63 65 67 73 84 89 83 84 84 83 80 79 82 80 77 71 70 75
56 56 56 56 53 47 45 47 50 48 40 41 43 43 44 44 41 42 48 53 60 60 59 57 62 65 70 74 78 78 72 77 74 77 83 85 87 86 85 85 82 83 81 78 78 76 75 72 74
56 56 55 56 53 48 48 51 52 45 41 36 41 43 44 46 45 49 50 52 56 59 61 61 63 68 73 79 81 83 82 82 82 85 88 90 88 87 87 83 82 84 83 81 78 79 78 79 78
54 52 52 50 49 46 49 50 50 46 39 37 36 42 45 48 50 48 52 54 54 57 59 62 60 64 71 78 79 81 80 81 84 87 89 91 89 88 82 82 82 85 84 83 82 77 79 83 85
51 49 50 47 46 45 46 44 48 48 40 39 37 38 44 46 48 51 50 50 53 55 55 57 55 57 63 70 75 77 80 81 86 89 90 91 89 92 86 84 83 85 83 82 80 80 79 82 84
48 47 48 47 46 42 46 43 45 48 45 38 39 38 40 43 45 48 48 50 50 52 53 54 52 52 55 62 71 75 77 81 85 88 92 97 94 93 88 87 86 88 86 83 81 81 80 74 79
43 46 48 52 50 50 52 52 50 48 48 47 42 42 41 39 38 41 47 47 50 52 53 54 56 54 53 56 58 62 66 71 77 83 91 92 96 96 91 92 88 86 80 79 81 81 81 78 81
45 44 46 50 53 52 53 52 51 52 51 46 46 44 43 44 43 46 45 47 48 50 53 53 51 53 56 58 60 58 62 73 80 86 91 94 95 95 93 90 85 81 80 79 84 86 82 81 82
45 47 46 47 49 50 52 51 50 52 52 50 47 46 44 46 48 53 51 50 48 48 49 50 56 56 54 58 61 64 68 74 77 85 88 90 91 93 89 86 81 79 77 79 79 83 87 89 86
50 50 48 45 49 51 50 47 46 47 50 50 49 47 46 45 48 53 52 47 49 48 48 52 54 57 59 58 62 66 66 67 70 72 80 88 87 87 86 88 88 84 82 82 84 82 83 87 90
47 48 48 48 50 48 51 45 43 44 44 45 48 48 47 46 47 51 50 51 49 47 46 49 53 58 58 62 65 65 64 66 66 66 68 75 81 79 75 78 79 80 82 83 81 83 86 92 88
46 49 50 50 48 47 48 45 37 39 38 40 40 43 45 47 48 50 57 59 50 47 52 57 55 53 57 61 64 71 74 72 67 68 68 75 84 85 80 80 88 87 89 89 83 86 89 90 88
47 47 47 46 45 43 45 45 34 35 36 37 39 41 45 48 48 50 54 59 60 56 61 58 53 57 65 65 68 75 70 71 63 69 73 79 90 90 90 87 84 83 75 75 74 75 79 84 86
43 47 48 45 42 40 45 44 32 32 35 37 39 41 43 47 48 48 54 59 59 60 63 64 58 60 65 64 70 73 75 70 56 66 78 79 78 85 83 79 82 79 72 70 69 68 79 80 79
39 44 47 48 43 42 45 40 30 33 32 36 39 42 43 45 45 48 55 60 59 61 64 66 66 64 63 59 62 67 59 40 48 53 58 58 65 72 74 74 76 72 70 64 62 65 68 72 74
34 45 43 44 47 43 38 35 33 32 34 35 37 40 43 45 50 49 53 55 55 59 62 60 57 60 59 58 62 57 47 34 40 41 46 54 63 66 68 66 63 59 53 53 59 62 63 65 64
33 43 43 44 47 44 36 38 36 34 33 34 33 35 41 47 48 49 51 48 48 50 55 56 55 57 56 57 53 42 31 32 35 37 40 45 46 47 45 44 45 47 49 52 52 53 55 54 57
32 40 40 36 36 36 36 31 35 36 33 34 33 34 36 44 43 43 43 44 51 47 46 48 50 47 45 41 32 29 29 29 29 34 37 38 37 33 29 30 32 33 33 35 34 37 39 46 51
35 39 39 33 34 36 36 27 30 32 32 33 33 35 32 37 37 39 37 39 44 44 47 48 43 41 37 29 24 23 24 25 25 26 26 27 26 27 27 26 26 28 28 30 32 33 36 38 44

GFSSGP_prec_cthk_276.txt.gz
RH
61 66 68 70 71 66 70 68 61 57 58 60 67 65 66 66 67 66 65 66 60 58 56 57 52 49 48 46 43 43 44 46 46 49 56 58 59 60 58 59 63 56 58 60 61 64 62 59 58
56 57 60 63 67 68 72 63 64 64 61 62 64 70 71 72 68 63 64 62 59 57 53 51 48 46 43 43 45 42 39 40 42 45 52 58 59 57 52 54 60 57 51 53 58 61 57 58 57
56 54 51 52 58 63 66 68 62 60 57 56 59 68 67 70 72 65 63 58 58 56 53 48 45 43 41 43 45 43 40 39 41 47 56 60 58 57 53 55 56 56 52 52 55 60 61 58 58
58 56 53 51 57 67 68 67 62 63 58 52 52 52 59 65 69 65 60 56 58 57 56 44 42 41 41 43 44 44 42 39 36 43 54 62 71 62 48 49 53 53 47 54 55 56 61 61 59
62 61 62 60 52 57 60 66 66 62 56 51 50 51 57 62 65 61 58 55 56 57 54 46 43 43 44 46 45 43 40 39 44 47 45 47 49 51 45 48 50 48 47 47 51 54 55 57 59
59 59 65 59 56 49 57 58 68 55 55 50 49 47 58 63 60 58 55 55 56 58 56 52 47 48 50 52 54 54 53 51 52 53 51 51 51 48 45 45 41 43 44 45 47 49 52 54 55
60 60 58 60 54 54 54 56 57 58 55 47 46 48 57 61 62 59 56 58 58 55 58 55 56 53 54 56 58 60 61 60 67 61 59 57 58 56 54 52 55 54 56 58 48 51 53 52 58
60 58 63 58 60 52 54 56 59 53 53 49 47 53 52 58 60 60 58 58 59 55 58 60 63 62 60 61 58 60 60 60 58 63 67 63 62 66 62 60 60 55 55 53 53 56 52 58 59
59 61 62 59 61 58 44 47 68 54 47 51 51 47 49 52 56 58 55 56 55 55 57 60 65 66 62 62 59 60 64 60 60 62 63 69 68 75 72 77 67 69 69 69 65 60 60 65 66
57 61 59 57 60 59 48 47 59 60 61 50 50 45 47 50 51 51 50 52 52 55 57 60 63 65 67 65 64 64 67 64 61 64 66 70 74 72 76 78 75 74 73 70 68 69 71 74 81
55 54 55 56 55 53 46 44 44 53 66 49 47 45 49 51 50 53 50 51 53 53 56 59 58 61 65 66 62 66 67 65 64 62 64 66 73 79 80 79 82 79 81 79 81 83 79 81 86
55 52 54 55 51 48 49 48 48 52 52 45 44 42 45 46 47 51 50 51 55 59 60 59 59 58 62 65 65 72 78 74 66 66 67 77 85 82 79 79 81 80 81 82 84 87 86 83 78
54 54 55 55 52 49 48 50 52 47 37 38 40 39 42 46 47 46 46 51 59 60 59 57 61 64 68 73 77 73 72 75 81 77 76 77 82 83 85 84 82 81 81 81 79 81 85 83 80
51 52 51 50 48 47 49 49 52 43 37 33 36 39 42 43 44 46 47 53 57 62 61 59 60 67 71 79 81 78 80 82 85 83 86 87 86 87 86 86 85 83 83 83 82 80 80 83 82
49 48 48 44 42 43 48 49 50 42 37 33 35 38 41 43 42 45 49 53 54 56 59 59 57 62 68 78 79 80 80 82 84 84 84 86 86 86 89 87 84 84 84 81 82 82 80 78 83
48 48 48 42 40 39 45 49 44 44 36 35 35 38 41 44 44 49 54 54 54 56 57 58 57 59 65 73 79 81 82 83 84 86 86 87 89 95 97 90 88 88 84 82 79 81 83 82 78
45 48 46 45 43 44 48 46 44 45 45 40 37 40 41 44 48 50 53 53 55 57 60 59 58 58 60 62 68 78 77 78 81 81 79 83 87 90 94 92 90 90 88 87 84 79 78 82 79
43 44 48 50 48 48 51 44 47 48 49 48 44 38 41 43 46 51 52 54 55 59 58 60 61 62 62 60 61 64 66 69 72 78 82 85 88 92 92 87 93 88 84 82 82 83 84 84 81
43 43 48 49 50 51 47 46 48 51 51 48 50 46 42 43 44 50 49 52 56 54 58 58 58 58 58 61 62 62 62 63 68 77 76 79 83 85 84 83 81 80 75 75 82 88 92 92 93
41 46 48 48 47 48 48 45 46 47 49 51 52 50 47 48 49 51 51 52 53 53 54 54 52 55 55 57 58 62 61 63 63 64 67 73 83 77 79 78 76 76 80 78 78 82 85 90 89
43 47 50 48 45 46 46 46 44 44 44 47 51 52 51 50 54 55 56 52 53 52 49 51 54 54 56 57 57 60 60 60 61 65 65 62 66 71 71 74 74 76 78 76 79 82 84 85 87
42 45 48 48 47 50 43 43 41 40 42 44 46 49 53 55 52 56 57 54 56 54 51 53 52 53 50 51 54 54 60 67 69 63 65 69 72 66 67 66 68 67 74 82 85 82 82 84 85
44 45 47 47 46 42 46 43 38 34 39 40 44 49 53 56 54 55 55 59 60 55 52 54 57 51 51 56 56 58 64 68 66 67 62 67 75 75 71 71 72 75 77 78 76 69 70 76 75
37 44 45 44 42 44 43 38 37 35 34 37 39 46 49 50 53 53 53 60 58 57 55 59 57 53 50 55 54 62 66 63 60 57 54 68 77 80 74 74 69 69 68 66 65 70 69 68 84
35 42 45 49 46 42 37 36 37 34 32 33 39 43 45 48 50 52 51 55 58 60 59 63 61 58 52 58 58 63 65 55 48 39 47 55 62 69 75 63 61 64 77 84 77 71 70 66 71
31 39 37 51 47 42 39 39 37 32 34 35 38 42 45 45 46 49 49 54 57 60 57 59 60 60 57 57 57 64 60 44 41 35 36 45 55 60 56 62 63 61 62 66 62 56 62 59 68
32 35 36 39 35 36 34 36 33 33 36 35 37 39 43 44 48 52 55 56 58 58 58 60 59 56 56 51 55 52 42 36 32 33 34 35 40 47 49 48 50 50 49 48 48 52 51 52 53
29 35 38 38 40 39 32 34 34 36 37 36 36 37 38 43 50 52 55 58 60 56 55 52 52 52 48 50 43 35 30 29 30 31 33 37 42 39 36 35 35 36 38 37 36 36 37 38 42
29 27 33 33 32 30 29 28 33 32 34 35 36 38 34 41 45 46 45 50 49 52 50 48 52 50 46 40 34 28 26 27 28 30 32 34 32 29 28 26 26 26 26 27 29 31 32 33 35
31 27 33 37 34 33 30 26 26 31 31 32 35 39 37 40 42 42 44 47 46 49 51 46 43 39 37 33 23 22 24 24 25 25 23 25 25 26 28 29 29 30 32 34 37 38 37 36 36

GFSSGP_prec_cthk_279.txt.gz
RH
55 58 64 74 94 80 63 61 63 64 58 60 60 68 64 61 69 71 69 71 61 61 61 54 50 51 50 48 46 48 48 48 50 57 61 60 61 61 60 63 65 71 66 67 67 70 65 58 59
50 50 56 66 85 67 70 64 55 59 58 59 66 67 72 66 60 60 69 65 63 57 56 53 48 47 47 47 45 42 44 44 45 54 57 58 57 54 55 59 59 56 65 64 66 63 60 57 57
52 50 58 58 58 75 62 69 60 60 56 54 58 67 69 69 67 61 63 62 62 58 58 49 45 44 45 47 44 42 41 42 45 53 58 58 58 53 55 57 59 57 59 59 67 66 65 62 57
56 63 68 65 61 58 68 60 63 61 53 50 49 57 58 66 69 62 62 62 62 62 59 43 42 42 43 45 44 42 36 36 48 59 65 75 63 53 55 58 55 48 55 57 57 63 67 60 57
55 86 80 61 57 51 57 56 65 67 52 55 51 63 59 65 65 60 61 64 64 67 53 44 43 44 45 44 42 40 38 41 42 48 50 61 67 54 47 51 48 47 58 54 54 56 60 61 60
73 71 69 52 54 64 53 58 55 54 47 46 51 50 59 60 61 60 59 63 63 65 55 48 46 48 48 52 48 46 44 45 47 48 48 48 48 42 44 40 42 43 42 48 52 54 60 57 56
56 69 61 68 67 51 60 53 66 51 56 48 47 54 58 60 59 58 60 63 63 60 59 55 52 51 52 58 55 56 56 57 56 56 55 53 52 52 51 52 50 48 52 54 47 50 50 54 56
52 78 77 56 69 68 52 56 56 59 49 46 50 61 55 56 59 58 60 59 59 60 61 61 62 57 59 61 56 60 59 58 60 60 62 60 59 60 61 58 57 53 50 50 49 50 48 54 55
57 81 68 56 74 64 50 56 54 49 49 48 45 48 49 54 56 56 57 56 57 59 60 65 69 62 60 65 56 56 57 57 56 59 60 64 65 73 68 77 75 65 64 64 63 59 56 57 59
53 63 55 54 57 59 48 53 48 59 51 57 44 44 48 51 53 53 54 55 54 55 60 60 68 68 65 64 57 60 63 63 61 64 73 70 70 79 78 76 74 75 71 69 66 63 67 70 71
57 55 55 55 45 47 48 53 44 67 56 64 47 43 48 50 53 52 52 55 55 54 57 57 61 68 68 69 63 68 70 67 66 63 66 65 71 79 80 83 78 78 78 80 78 77 79 76 75
62 51 53 53 47 52 52 51 56 61 53 47 44 41 45 51 52 52 51 53 54 55 55 55 60 59 65 68 68 69 73 83 72 72 61 68 74 81 80 83 84 83 81 81 83 84 84 91 82
49 52 50 51 46 47 45 51 53 50 34 45 40 40 47 48 49 52 51 52 57 59 58 59 60 59 67 70 79 76 70 71 79 81 75 75 76 81 83 84 85 83 82 82 84 83 81 80 84
45 44 47 45 43 44 52 49 56 41 36 39 36 39 44 45 48 50 50 52 57 60 61 59 62 64 68 76 78 75 71 79 81 82 81 83 83 83 85 84 85 82 84 81 83 83 84 84 86
44 50 44 41 43 41 56 55 53 36 36 40 41 39 42 45 47 46 45 51 57 60 60 60 59 60 66 75 78 78 77 80 83 79 78 77 76 81 86 89 85 83 80 78 78 79 82 84 83
49 56 54 37 36 39 50 62 43 42 38 39 42 45 43 43 45 44 47 53 55 57 57 59 57 59 62 72 75 77 81 81 79 81 79 76 78 78 80 86 85 85 85 82 78 78 79 82 81
50 49 48 48 41 44 49 53 44 43 46 44 42 45 44 46 43 44 49 52 55 57 58 60 60 60 59 56 63 67 69 66 68 71 76 75 76 79 80 84 82 87 89 88 82 82 79 80 86
46 43 50 49 46 45 48 49 51 49 45 48 42 44 45 48 49 52 55 55 58 58 63 65 64 60 56 57 56 58 59 64 68 71 75 75 79 82 86 87 85 83 87 83 80 80 85 88 90
40 39 47 48 42 42 49 48 49 50 47 48 47 42 48 48 50 55 54 57 61 61 63 63 60 60 56 58 57 56 59 61 59 62 62 62 69 69 76 79 79 80 79 72 72 76 81 83 89
37 43 52 47 42 39 47 50 47 42 46 48 51 49 48 48 50 55 56 57 61 60 56 56 56 57 55 58 56 64 71 75 75 76 75 74 70 68 72 73 75 75 76 79 77 77 80 81 86
35 43 44 44 42 42 51 52 54 41 43 46 48 54 55 55 54 54 56 56 57 55 49 49 49 50 53 56 59 62 64 70 73 75 71 67 70 72 75 71 68 71 75 78 78 84 80 85 89
35 43 40 40 42 69 50 59 59 48 39 43 46 51 54 56 54 53 55 55 56 54 51 45 48 50 54 58 58 64 68 72 74 79 73 66 68 78 80 80 71 67 74 78 86 88 81 76 77
38 39 41 40 40 41 47 49 52 45 48 43 46 54 54 57 57 58 59 54 55 52 51 52 52 50 51 55 56 64 67 70 68 63 56 49 67 82 91 82 71 72 74 79 75 65 69 70 74
32 34 38 39 38 40 64 39 54 71 40 39 42 48 52 55 58 58 58 55 56 57 52 56 55 55 56 54 56 63 67 69 64 51 41 49 60 71 81 74 70 68 74 73 75 78 73 72 73
30 33 37 42 46 63 46 36 43 41 37 36 38 40 45 51 51 55 57 54 58 59 56 56 58 57 57 55 58 63 68 65 51 39 38 39 53 60 73 67 65 65 65 66 71 70 65 62 63
34 34 30 39 46 47 39 39 40 38 37 30 33 37 42 46 47 51 53 55 55 58 58 55 57 60 61 59 62 65 63 53 43 35 33 40 46 51 59 63 68 66 67 69 63 54 53 62 58
33 31 29 27 23 30 24 37 29 36 46 40 38 39 36 40 47 48 50 55 59 57 54 50 55 62 62 59 63 62 54 43 33 33 33 39 40 46 49 41 42 43 42 40 38 39 43 42 42
22 29 30 27 30 28 38 31 27 33 40 34 42 38 37 41 43 45 48 51 53 54 56 52 55 56 55 54 54 50 37 29 31 33 36 37 40 40 35 32 30 28 24 23 25 28 29 30 34
21 26 29 31 43 30 22 33 44 35 37 33 43 39 37 36 42 44 47 49 51 51 54 53 53 49 44 48 43 35 28 26 31 33 33 33 29 24 23 28 27 28 27 27 30 33 32 34 33
25 27 27 27 29 23 24 22 21 29 34 30 36 39 37 37 39 42 43 44 46 47 48 50 49 44 42 39 35 23 24 28 30 30 31 29 32 26 27 31 33 33 32 35 37 38 39 39 40

GFSSGP_prec_cthk_285.txt.gz
RH
72 79 75 85 88 82 67 69 68 82 66 62 59 64 67 62 63 61 53 55 56 49 45 46 46 47 45 44 45 45 47 52 55 54 53 54 55 63 67 64 61 57 54 55 56 56 56 58 61
85 83 63 70 87 77 71 68 59 62 61 68 57 59 57 53 53 56 53 54 51 45 44 44 44 45 42 41 42 42 43 47 55 51 51 50 51 57 57 56 58 56 59 59 58 59 56 55 57
81 65 80 91 79 71 60 75 75 70 64 61 59 58 62 56 59 54 53 49 47 44 43 42 43 44 42 39 36 37 38 44 49 49 48 45 47 52 53 50 51 55 58 62 62 60 58 53 52
61 71 85 83 72 57 56 72 67 73 59 49 54 59 57 52 48 46 45 45 44 42 41 40 41 42 41 38 34 35 41 45 48 49 49 50 52 49 50 54 50 50 55 62 65 64 63 55 53
58 73 81 74 69 61 61 59 65 62 53 52 48 51 55 53 52 52 47 46 42 43 42 41 42 43 42 39 36 38 43 46 48 56 60 57 54 47 48 47 45 50 53 55 57 63 66 60 57
69 73 76 73 78 63 58 64 64 68 55 61 46 48 51 56 53 58 54 49 45 44 41 42 44 43 43 43 40 41 44 52 50 48 46 46 41 39 41 39 38 39 43 46 52 53 58 63 60
77 78 70 69 67 62 62 59 54 58 56 54 53 54 56 53 60 56 57 60 62 49 40 43 45 45 46 47 45 48 50 54 52 54 52 49 49 51 49 45 44 42 42 45 46 46 50 53 54
75 69 75 63 56 52 60 68 53 47 53 52 49 55 54 50 60 58 62 65 63 52 40 42 45 48 50 51 52 51 53 54 55 56 57 57 55 55 56 55 53 53 54 51 50 48 48 50 50
67 72 72 59 59 66 56 50 48 60 45 39 38 42 46 47 59 60 61 57 54 46 40 43 45 48 51 51 56 55 57 57 54 56 57 58 62 63 67 64 69 66 61 59 60 61 58 56 57
69 71 71 51 45 55 63 55 51 51 54 44 40 45 46 45 54 55 54 55 53 50 48 48 53 53 48 53 52 50 50 50 51 53 63 63 65 71 70 70 67 67 70 71 70 68 65 63 64
57 52 50 51 42 61 63 46 54 63 58 57 44 41 44 44 50 51 52 51 52 53 52 56 60 56 54 53 57 55 59 59 59 58 63 64 68 72 75 71 72 74 75 77 75 77 75 76 82
47 51 46 44 39 62 55 50 51 47 39 40 41 38 42 43 46 49 49 49 50 53 51 55 59 60 63 64 66 68 74 70 71 72 72 79 66 66 71 72 73 75 77 77 75 74 75 80 83
53 55 58 47 38 52 54 49 36 39 38 42 40 39 44 45 48 48 48 49 50 51 52 52 56 61 66 72 70 71 69 70 73 74 80 81 75 72 74 78 81 81 77 77 77 75 77 75 78
54 54 40 42 49 49 50 48 41 44 42 41 37 40 42 44 44 45 48 47 47 47 50 52 50 56 64 70 69 74 73 70 72 74 77 76 79 76 78 79 83 87 85 81 80 75 73 75 76
45 51 44 45 48 50 46 53 46 46 38 35 36 39 43 44 46 47 48 49 47 46 47 47 46 51 61 64 67 73 73 69 66 75 73 75 76 79 78 78 81 81 85 89 88 83 78 75 77
45 46 52 49 45 47 52 58 45 45 38 36 38 40 41 44 45 49 45 47 46 48 48 45 44 45 47 50 54 56 58 58 61 68 71 72 75 78 72 78 82 86 87 87 88 87 85 85 87
46 55 53 54 49 48 52 59 51 48 40 39 40 40 40 46 47 48 46 46 44 50 50 49 47 46 47 50 50 51 54 59 66 66 67 68 70 70 71 74 78 84 89 88 87 86 85 85 87
49 53 57 54 51 49 59 65 47 57 47 45 41 43 40 42 44 43 43 45 46 49 48 47 48 44 45 46 50 55 59 65 67 71 74 75 78 78 75 79 73 79 83 86 84 78 77 81 84
36 46 51 47 48 47 63 69 73 67 69 58 47 45 46 45 44 43 44 45 47 46 46 47 49 45 46 49 52 57 63 66 73 72 75 71 64 69 83 79 78 72 79 78 78 75 80 84 81
34 37 52 46 45 51 64 63 59 69 61 60 56 46 47 45 43 43 45 46 45 43 45 45 46 46 47 51 54 58 63 67 71 69 70 63 65 75 83 90 89 86 81 88 91 90 83 86 86
29 33 46 46 48 55 65 64 59 61 57 50 52 50 44 44 46 43 45 46 50 46 44 47 48 49 49 50 54 57 63 62 59 64 64 59 52 66 77 86 92 86 86 88 89 87 83 81 88
30 32 39 37 49 66 59 63 48 43 45 46 45 50 49 47 48 47 46 47 46 46 46 50 50 51 51 51 52 53 60 65 59 61 58 55 42 55 64 79 83 79 82 81 84 82 83 85 78
35 33 32 38 55 59 59 68 54 46 42 38 42 46 49 48 47 46 47 50 49 48 48 52 53 54 53 52 50 55 60 62 57 57 57 49 37 42 57 63 68 72 68 70 78 81 81 82 78
29 30 31 40 49 66 70 65 51 52 45 42 43 49 53 49 46 48 50 50 49 50 51 51 55 56 56 51 50 55 61 62 71 59 50 44 32 36 43 59 59 64 65 67 66 69 69 74 72
23 31 32 42 60 68 58 61 53 52 50 53 49 63 55 55 44 48 49 53 51 52 50 52 54 56 57 58 53 56 60 59 56 55 44 35 30 35 41 51 46 50 54 58 58 60 54 48 46
17 28 36 39 55 62 55 56 47 51 51 41 41 44 56 74 46 46 47 48 49 49 46 46 50 55 55 56 53 51 55 53 52 50 36 29 30 39 41 39 33 30 31 33 33 33 33 32 30
11 20 26 33 32 50 57 57 46 48 57 52 45 35 36 40 44 43 43 46 44 46 49 46 44 48 50 50 50 47 48 49 48 39 27 30 32 40 38 30 27 26 27 28 29 30 28 28 28
11 13 29 35 37 43 56 52 50 42 48 45 33 26 30 34 42 46 42 46 47 46 47 46 44 44 45 47 45 44 46 45 40 30 28 30 34 37 35 33 33 33 33 33 34 34 32 32 31
15 13 20 26 32 40 58 57 42 43 45 45 36 33 31 31 35 37 39 42 44 45 44 43 44 44 44 45 42 38 40 33 28 27 28 32 34 31 34 36 37 34 32 35 34 35 34 33 34
18 17 17 24 27 32 44 50 40 43 46 55 56 42 37 34 34 33 34 36 38 39 39 40 41 43 44 41 37 36 30 27 25 28 31 31 35 35 37 36 34 33 34 36 36 37 37 36 36

GFSSGP_prec_cthk_291.txt.gz
RH
73 71 72 76 77 76 77 72 70 71 73 72 68 65 67 65 57 53 51 51 52 52 54 55 51 52 52 52 53 53 53 55 59 61 61 61 61 59 55 52 52 50 51 51 53 53 58 61 66
69 65 64 65 73 81 81 70 68 64 61 70 66 68 62 61 60 51 50 49 49 49 51 51 47 47 49 50 50 52 54 56 55 58 58 60 59 55 53 53 52 52 52 52 54 54 56 58 60
68 67 64 67 73 70 73 76 60 57 63 68 63 63 56 58 58 47 48 46 47 48 49 47 44 43 45 46 45 48 56 54 53 52 52 55 55 55 56 54 54 53 52 54 54 54 54 56 57
66 67 66 66 64 68 68 65 55 55 64 58 54 53 52 50 46 45 46 44 44 45 47 47 47 48 48 45 50 51 50 50 48 48 50 51 52 51 53 54 53 54 54 55 54 54 54 55 59
58 63 73 62 64 67 67 62 58 60 55 56 52 50 52 51 47 44 43 44 43 43 47 48 49 48 45 42 47 50 52 53 59 61 56 55 49 49 48 48 50 54 56 56 56 58 56 54 53
59 60 65 64 64 64 58 58 56 58 53 52 51 47 52 51 45 43 42 43 44 43 46 48 48 46 43 44 49 51 51 51 51 48 46 48 49 49 47 48 49 52 53 55 57 57 58 56 55
68 62 64 68 69 66 59 59 58 57 53 49 49 51 52 48 43 40 40 42 43 45 46 48 48 47 45 47 50 55 56 60 59 57 52 55 53 53 54 51 52 55 54 53 57 60 60 61 58
66 69 61 65 72 64 60 58 57 61 51 44 49 53 48 47 48 47 49 49 44 45 47 47 48 46 46 49 51 57 58 57 58 58 57 57 59 58 58 57 54 54 55 55 57 58 60 63 63
59 65 63 64 68 60 59 61 65 60 52 45 43 48 42 46 51 54 53 55 51 45 45 47 47 48 48 48 52 55 54 54 57 59 59 60 62 63 64 64 66 64 61 61 61 58 56 58 59
60 58 56 57 68 61 60 58 61 59 56 54 45 41 47 50 54 56 58 57 54 44 44 45 47 48 49 49 50 52 51 51 53 55 60 61 66 72 76 76 79 78 75 74 71 69 65 62 64
61 57 54 48 56 54 49 54 61 57 53 48 43 37 43 47 54 55 57 55 46 43 43 49 47 46 47 49 51 54 58 55 54 57 61 63 68 69 74 75 78 78 77 82 84 79 77 71 68
61 57 57 50 56 64 52 48 55 51 44 42 39 36 41 46 51 53 55 54 50 44 42 51 54 53 52 56 60 63 65 66 65 62 65 74 72 69 70 78 79 82 80 79 79 77 77 75 76
58 55 52 52 53 52 60 53 50 46 44 46 41 39 44 47 50 52 52 50 51 49 52 56 62 64 64 61 65 71 76 72 70 75 72 77 81 79 77 79 88 89 90 84 83 80 76 75 81
54 52 50 52 54 55 57 53 49 42 45 46 40 41 46 48 50 52 54 53 54 55 56 56 60 64 65 66 68 70 72 72 71 69 73 76 81 85 84 79 78 85 88 86 87 91 90 82 77
53 55 53 54 55 60 59 58 52 46 42 45 41 40 44 46 51 49 50 53 54 57 57 55 59 67 69 69 69 68 64 63 65 67 69 78 78 81 86 82 81 81 87 88 89 90 92 91 88
49 56 60 62 56 61 66 69 62 52 47 45 45 42 44 45 46 49 50 52 52 52 49 48 53 61 63 64 61 53 56 58 61 61 65 73 76 81 85 85 85 86 84 85 90 91 89 90 89
52 57 56 62 60 63 64 69 60 51 50 46 46 52 49 45 48 47 52 52 54 53 53 51 48 50 50 48 52 57 60 63 67 72 74 75 82 81 80 87 91 89 86 79 91 89 88 86 85
46 50 53 53 58 56 63 65 58 57 53 54 49 47 54 51 47 48 53 53 55 54 54 55 53 50 50 51 55 61 65 65 69 72 71 76 76 75 86 88 91 90 88 84 83 86 80 77 82
41 48 53 54 56 48 51 54 53 56 56 54 59 52 51 53 51 51 52 54 55 51 49 52 55 53 52 52 58 63 66 65 60 62 67 60 62 63 71 79 88 96 93 89 81 78 76 77 83
37 46 55 56 53 47 46 50 51 52 52 56 57 59 52 51 52 52 53 52 51 47 44 49 51 51 53 53 57 63 61 59 59 67 58 50 55 50 65 66 78 96 97 89 85 84 84 82 79
32 37 47 53 55 50 53 52 49 52 51 52 55 55 53 50 52 50 50 48 50 48 43 46 52 56 59 54 55 61 68 61 65 67 70 49 46 35 56 55 62 76 81 84 83 84 84 78 76
30 27 41 49 51 50 53 57 49 51 51 48 49 50 51 51 50 50 50 48 44 45 44 46 52 59 62 60 56 55 63 66 67 74 58 55 38 34 40 49 53 59 65 70 70 72 74 75 75
22 34 41 45 49 47 52 59 50 51 50 48 41 43 47 47 47 47 48 49 45 45 46 47 52 57 62 65 60 54 56 62 77 72 58 51 40 34 35 42 44 51 56 56 57 61 61 62 64
24 32 41 47 46 48 50 51 46 51 46 41 39 37 40 45 47 49 50 51 50 47 49 50 49 52 60 65 63 56 57 60 69 62 50 47 41 30 35 36 37 35 45 52 54 53 52 52 52
21 29 34 34 42 45 47 47 45 40 43 42 40 38 43 47 49 48 51 49 49 52 50 49 53 57 61 63 63 60 52 55 67 58 49 47 37 27 36 38 33 32 33 35 37 39 39 39 37
20 24 28 31 36 39 43 44 38 41 41 37 36 37 47 48 48 48 51 50 49 52 52 50 50 52 56 61 61 55 53 56 65 55 47 43 30 30 37 33 27 27 27 27 26 26 26 25 25
15 16 17 30 42 43 44 42 37 35 37 35 34 37 41 43 42 44 47 47 46 49 51 55 51 56 54 56 59 55 54 58 56 51 44 36 28 32 30 24 24 25 27 28 28 27 28 28 28
13 15 18 23 37 41 43 47 45 34 34 34 31 33 38 37 36 35 39 43 43 46 49 54 56 57 57 55 55 50 53 54 50 44 39 29 30 31 30 28 27 26 28 29 30 29 30 29 29
15 16 19 22 27 36 41 40 38 34 34 31 30 27 24 27 30 33 35 37 41 42 46 46 49 55 55 50 50 46 52 52 48 37 31 30 32 34 33 31 30 29 31 32 33 33 33 33 32
15 15 16 20 21 34 38 35 31 31 33 33 32 29 24 24 23 27 30 31 35 36 38 40 46 52 53 48 47 47 51 52 44 29 30 32 37 38 34 35 35 37 37 36 33 32 31 29 25